This is the latest recevied weather packets stored in our database for station/object SP1BMW-13. If no packets are shown the sender has not sent any weather packets the latest 10 day(s).
| Time | Temp. | Humidity | Pressure | Rain* | Wind** | Luminosity | Snow |
|---|---|---|---|---|---|---|---|
| 1778254440 | 13.89° C | 52% | 1019.1 hPa | 0 mm | 0 m/s | 101 W/m² | - |
| 1778254381 | 13.89° C | 52% | 1019.1 hPa | 0 mm | 0.45 m/s, 321° | 100 W/m² | - |
| 1778254320 | 13.89° C | 52% | 1019.2 hPa | 0 mm | 1.79 m/s, 324° | 99 W/m² | - |
| 1778254260 | 13.89° C | 54% | 1019.2 hPa | 0 mm | 0.89 m/s, 301° | 97 W/m² | - |
| 1778254201 | 13.89° C | 54% | 1019.2 hPa | 0 mm | 0.45 m/s, 42° | 95 W/m² | - |
| 1778254140 | 13.89° C | 54% | 1019.1 hPa | 0 mm | 0.45 m/s, 287° | 93 W/m² | - |
| 1778254080 | 13.89° C | 53% | 1019.2 hPa | 0 mm | 0.45 m/s, 316° | 92 W/m² | - |
| 1778254020 | 13.89° C | 54% | 1019.2 hPa | 0 mm | 0.45 m/s, 324° | 92 W/m² | - |
| 1778253960 | 13.89° C | 54% | 1019.3 hPa | 0 mm | 0 m/s | 92 W/m² | - |
| 1778253900 | 13.89° C | 54% | 1019.3 hPa | 0 mm | 0 m/s | 93 W/m² | - |
| 1778253840 | 13.89° C | 53% | 1019.2 hPa | 0 mm | 0.45 m/s, 42° | 93 W/m² | - |
| 1778253780 | 13.89° C | 53% | 1019.3 hPa | 0 mm | 0 m/s | 93 W/m² | - |
| 1778253720 | 13.89° C | 52% | 1019 hPa | 0 mm | 0.45 m/s, 68° | 93 W/m² | - |
| 1778253660 | 13.89° C | 52% | 1019.3 hPa | 0 mm | 0.45 m/s, 297° | 93 W/m² | - |
| 1778253600 | 13.89° C | 51% | 1019.3 hPa | 0 mm | 0.89 m/s, 313° | 94 W/m² | - |
| 1778253540 | 13.89° C | 54% | 1019.1 hPa | 0 mm | 0.45 m/s, 297° | 96 W/m² | - |
| 1778253480 | 13.89° C | 54% | 1019.1 hPa | 0 mm | 0.89 m/s, 325° | 98 W/m² | - |
| 1778253420 | 13.89° C | 54% | 1019.1 hPa | 0 mm | 0.45 m/s, 309° | 100 W/m² | - |
| 1778253362 | 13.89° C | 54% | 1019.1 hPa | 0 mm | 0.89 m/s, 329° | 102 W/m² | - |
| 1778253300 | 13.89° C | 52% | 1019.3 hPa | 0 mm | 0.89 m/s, 47° | 105 W/m² | - |
| 1778253240 | 13.89° C | 52% | 1019.2 hPa | 0 mm | 0.89 m/s, 48° | 106 W/m² | - |
| 1778253180 | 13.89° C | 53% | 1019.5 hPa | 0 mm | 0.89 m/s, 304° | 109 W/m² | - |
| 1778253120 | 13.89° C | 52% | 1019.2 hPa | 0 mm | 0.89 m/s, 330° | 112 W/m² | - |
| 1778253060 | 13.89° C | 52% | 1019.3 hPa | 0 mm | 0.45 m/s, 289° | 115 W/m² | - |
| 1778253000 | 13.89° C | 52% | 1019.4 hPa | 0 mm | 0.89 m/s, 339° | 118 W/m² | - |
* Rain latest hour (hover to see other rain measurements)
** Current wind speed in m/s (hover to see current wind gust speed)